Tracking 25195 objects as of 20-Jan-2022
HD Live streaming from Space Station
objects crossing your sky now

MOLNIYA 1-52

Track MOLNIYA 1-52 now!
MOLNIYA 1-52 is classified as:


NORAD ID: 13012
Int'l Code: 1981-123A
Perigee: 825.4 km
Apogee: 39,497.8 km
Inclination: 62.2 °
Period: 716.9 minutes
Semi major axis: 26532 km
RCS: 16.6943 m2 (large)
Launch date: December 23, 1981
Source: Commonwealth of Independent States (former USSR) (CIS)
Launch site: TYURATAM MISSILE AND SPACE COMPLEX (TTMTR)
aabbcc
Your satellite tracking list
Your tracking list is empty




NASA's NSSDC Master Catalog

Two Line Element Set (TLE):
1 13012U 81123A   22018.81150188 -.00000315  00000-0 -84716-2 0  9996
2 13012  62.2464 301.3495 7287720 252.7121  21.9007  2.00878534293573
Source of the keplerian elements: AFSPC